Wind_Speed
10 11 7 8 9 8 7 7 5 2 7 11 9 5 3 6 6 6 8 10 13 17 19 20 22 24 24 22 22 23 23 24 22 19 19 16 14 15 14 12 10 7 6 5
4 3 8 9 12 11 12 12 14 15 16 8 7 5 5 2 3 4 4 6 9 11 14 17 19 20 21 21 20 19 20 19 17 16 15 15 13 13 11 9 7 5 5 5
3 2 4 7 8 12 6 7 6 7 4 3 5 7 8 6 6 4 3 3 5 7 9 10 12 15 16 17 17 17 17 16 16 15 13 13 12 12 11 9 7 5 4 5
3 2 3 2 2 4 11 11 13 14 12 9 9 7 9 9 10 9 5 2 2 4 4 5 7 8 10 11 11 11 11 12 12 12 12 11 9 7 6 5 4 3 3 3
3 3 7 3 5 6 7 4 13 18 15 14 8 8 18 17 15 12 9 7 4 1 1 3 4 5 8 8 8 6 6 8 8 9 8 7 5 5 4 3 1 2 3 5
0 3 4 2 5 6 4 6 9 14 9 11 9 5 4 5 13 15 13 9 6 5 3 2 1 2 5 5 5 6 7 8 8 7 5 4 4 4 3 3 3 4 5 6
6 6 8 4 10 10 2 2 9 13 11 15 9 12 4 5 9 11 12 11 10 8 6 5 5 3 1 1 1 3 5 6 6 6 6 5 5 4 3 3 4 5 6 8
4 4 8 15 10 6 1 6 9 14 16 17 21 15 15 14 11 12 13 13 12 11 9 9 8 7 5 3 1 1 2 2 3 4 5 6 6 7 7 8 8 9 8 8
8 5 2 33 6 24 7 7 12 15 17 20 20 22 22 19 18 17 16 15 15 14 12 12 11 10 8 7 4 2 1 1 2 3 4 5 6 7 8 9 9 10 11 12
3 7 17 20 33 25 20 23 19 18 17 20 24 22 23 23 24 22 21 20 19 17 16 15 14 14 13 11 8 6 5 4 3 2 3 5 6 7 8 9 11 13 14 15
9 21 18 28 30 28 27 27 29 30 29 27 25 27 25 24 24 24 22 22 21 21 20 19 18 17 16 15 13 11 9 8 7 6 7 7 8 8 9 12 12 14 15 16
11 24 16 22 19 17 18 18 19 21 26 26 28 31 29 28 26 24 23 22 23 22 21 20 21 20 18 17 16 15 14 12 10 10 10 11 10 10 11 12 12 14 15 15
33 41 30 31 36 31 29 31 33 28 28 25 23 23 26 28 28 26 24 23 23 21 18 17 19 20 19 17 14 12 11 10 11 10 11 14 14 13 13 12 11 11 13 15
35 37 29 34 26 29 23 23 20 17 19 22 21 22 22 23 25 27 27 23 20 18 17 17 18 19 19 18 17 14 13 13 13 13 14 16 14 14 14 14 15 16 17 17
42 37 41 42 35 36 35 32 31 30 29 28 27 24 24 25 27 29 25 22 20 18 17 17 18 19 19 19 18 16 15 15 16 17 17 16 14 14 14 15 17 19 20 20
22 24 29 33 31 32 32 30 27 27 28 29 29 30 30 27 26 28 26 24 24 23 20 18 18 17 18 18 18 18 17 17 16 16 15 14 14 14 16 17 19 20 21 21
22 25 27 30 34 34 35 33 28 26 24 25 24 22 26 28 28 29 29 27 24 21 19 19 19 18 18 19 17 16 15 15 14 12 12 13 14 16 17 18 19 20 22 23
36 37 30 27 23 25 24 23 21 21 24 23 21 22 23 28 32 33 32 29 25 24 23 22 20 18 16 15 15 14 14 13 12 12 13 14 15 16 17 18 20 22 24 26
21 20 22 20 19 20 20 21 20 18 19 20 23 24 23 25 29 32 32 30 27 27 25 23 19 17 16 15 15 14 13 13 13 13 13 13 14 16 18 20 23 25 26 28
15 15 13 12 11 12 14 13 16 19 18 19 20 22 23 23 27 31 32 31 29 26 22 20 19 18 16 15 14 13 13 13 12 12 11 13 16 19 22 23 25 26 26 25
15 12 10 9 8 8 10 10 11 13 13 15 17 19 19 19 24 29 31 31 28 24 22 19 18 17 16 14 13 13 12 12 11 12 14 17 20 22 23 23 23 23 24 24
13 10 10 9 6 5 5 6 7 8 10 10 11 14 16 19 23 26 28 28 24 21 19 20 18 16 14 13 13 12 11 11 12 15 18 20 21 21 22 23 23 23 22 22
13 11 9 7 4 4 5 6 7 8 9 10 11 13 17 19 23 30 30 26 22 19 20 19 17 15 14 12 11 11 11 12 15 17 18 18 19 21 22 24 25 26 27 28
10 8 6 5 5 7 8 9 10 11 11 12 12 13 16 20 23 27 24 20 17 20 20 18 16 15 12 12 11 10 12 14 15 15 16 17 19 21 22 24 25 26 27 27
13 10 7 6 6 8 9 10 11 12 12 12 12 12 14 17 22 25 24 18 20 21 19 17 15 13 13 11 10 11 12 12 13 13 15 17 18 20 22 23 25 26 27 27
13 10 6 6 6 6 8 10 11 11 12 12 12 13 16 18 21 19 18 20 20 20 18 16 14 13 11 9 10 9 9 10 10 12 14 16 17 19 22 24 25 27 27 27
14 9 7 7 8 8 10 11 13 13 13 13 14 18 21 22 20 18 21 22 20 18 17 15 13 10 9 8 7 8 6 7 9 11 13 15 17 19 21 22 25 27 28 27
Wind_Direction
264 261 240 252 260 248 220 248 228 145 254 280 290 300 325 322 327 341 352 6 9 14 22 31 41 52 59 62 65 72 75 79 82 83 87 102 111 108 111 117 131 158 170 199
273 303 236 272 266 252 249 252 257 264 274 259 280 234 235 253 308 319 334 0 7 18 26 31 37 44 51 52 55 63 65 68 73 71 81 84 89 103 112 114 133 184 186 199
268 60 317 276 240 203 212 217 227 228 240 186 224 232 243 221 211 241 290 348 4 18 27 30 32 36 46 48 51 52 58 66 72 76 81 87 89 92 98 108 120 154 178 197
289 294 245 95 144 228 229 252 231 253 249 238 254 254 256 235 220 210 214 240 358 15 19 32 41 41 42 39 44 50 58 61 66 70 69 73 82 96 109 116 139 170 187 209
285 265 309 208 204 199 201 264 212 231 252 236 235 286 272 243 227 216 214 225 233 250 40 28 34 53 56 49 49 50 59 63 62 57 59 70 79 79 69 58 30 297 263 258
308 280 260 91 155 150 134 263 193 201 218 208 181 243 255 217 219 222 225 232 231 236 225 178 131 69 60 56 55 62 66 60 54 53 52 39 26 20 5 341 325 313 305 300
219 252 272 192 145 144 217 57 178 206 217 182 198 219 220 212 224 224 225 234 238 233 228 220 211 196 164 67 34 53 58 57 54 48 42 41 41 33 15 348 336 332 324 312
187 235 273 150 126 204 166 170 199 208 219 213 227 230 237 243 243 234 231 234 238 239 239 232 221 210 210 215 197 119 97 66 37 26 26 22 12 2 359 355 351 345 341 335
217 228 73 184 220 217 224 224 226 224 234 234 238 239 240 240 239 239 243 245 242 243 243 243 240 232 227 227 224 231 240 271 337 357 9 12 11 4 356 345 335 325 319 317
258 225 236 225 239 248 249 254 261 260 250 241 238 244 245 244 243 243 243 241 242 243 245 245 243 238 232 229 227 228 234 240 247 271 305 320 326 329 328 325 328 327 322 320
254 273 265 262 250 257 265 271 268 266 259 250 246 242 245 247 246 244 244 244 241 243 246 246 241 237 233 230 230 233 237 246 253 260 266 280 295 303 304 308 316 315 314 314
248 260 254 278 280 273 268 274 285 282 273 260 253 253 251 248 249 248 244 242 242 246 250 248 239 234 234 233 233 238 242 249 254 261 277 287 294 300 304 305 310 311 312 313
247 262 270 269 273 273 275 283 284 279 278 265 266 264 256 253 247 245 244 241 241 247 249 244 234 228 230 233 235 238 249 258 268 286 294 301 307 306 307 309 309 310 313 315
249 255 264 260 265 277 275 280 281 278 265 256 262 262 257 255 245 239 239 242 244 239 240 233 226 223 226 228 233 241 249 259 269 276 281 297 305 303 305 310 315 316 315 315
253 251 254 265 269 268 272 272 269 270 266 258 260 256 259 257 243 236 236 236 234 234 229 220 222 221 223 226 231 234 238 249 259 269 279 292 292 292 298 304 307 308 309 312
264 256 252 252 264 270 271 268 263 266 268 263 255 263 269 262 250 239 231 227 226 229 227 224 228 231 226 231 236 243 250 259 270 278 281 279 282 290 296 300 302 304 307 310
251 256 252 251 258 268 267 268 267 269 265 264 262 264 258 256 244 231 227 228 228 226 227 228 233 237 224 229 237 245 252 259 266 272 271 275 283 289 293 296 300 303 306 307
256 267 262 260 264 266 270 266 263 257 255 262 260 253 250 241 236 229 223 222 221 220 222 229 232 228 229 235 240 242 245 252 258 267 273 278 284 288 293 298 301 303 304 304
244 253 265 268 261 258 262 266 267 262 259 260 259 251 246 244 236 230 223 218 218 222 224 228 228 228 229 231 235 239 245 256 266 271 275 280 285 291 295 298 300 301 302 303
237 234 244 244 239 249 261 263 264 265 263 260 256 251 242 236 231 226 220 219 222 224 225 238 225 219 220 223 229 238 251 257 264 270 277 288 296 300 301 301 301 301 299 300
230 223 215 222 222 235 251 259 266 272 270 261 253 250 248 237 227 220 211 211 215 215 224 227 214 212 215 222 234 242 248 254 261 275 287 295 299 301 301 301 301 300 302 303
201 193 188 188 198 224 249 267 273 271 268 261 250 238 233 225 218 213 216 217 214 217 227 206 206 210 219 228 232 236 242 257 275 288 296 299 300 300 301 301 301 301 301 300
171 175 178 182 210 254 278 283 280 271 264 257 248 239 234 222 212 205 203 204 209 220 207 206 204 210 220 223 227 236 254 274 288 295 298 299 301 303 304 305 304 303 301 300
173 180 189 212 241 259 268 269 267 263 254 245 241 239 233 217 206 205 211 207 216 201 197 198 207 214 213 219 231 253 274 286 292 296 299 304 306 308 309 309 308 307 305 303
177 180 189 210 241 259 269 275 274 268 259 251 244 229 214 212 216 200 199 207 196 193 194 199 205 207 212 226 248 269 280 288 294 301 307 311 314 316 317 317 317 315 313 310
172 161 173 209 235 257 276 278 276 266 253 242 229 209 198 197 195 198 205 199 192 189 196 200 202 207 221 242 263 271 282 289 304 312 316 320 324 327 327 326 324 323 319 314
187 189 212 243 264 272 272 276 276 269 254 239 221 198 191 193 199 204 192 187 188 190 192 197 203 217 237 252 261 271 284 307 316 322 327 331 334 334 333 334 331 328 325 321
Height
1503 1500 1503 1500 1496 1494 1504 1487 1484 1469 1475 1463 1463 1468 1470 1470 1469 1467 1465 1462 1459 1454 1449 1444 1440 1437 1434 1432 1429 1428 1425 1424 1425 1426 1426 1427 1429 1428 1429 1432 1432 1437 1438 1441
1509 1499 1499 1495 1487 1489 1488 1486 1482 1475 1468 1461 1462 1465 1467 1468 1467 1466 1465 1462 1460 1457 1453 1450 1446 1442 1439 1437 1435 1432 1430 1429 1428 1429 1430 1431 1431 1429 1431 1432 1435 1439 1439 1441
1488 1500 1505 1491 1472 1474 1473 1473 1471 1469 1456 1459 1460 1461 1462 1464 1465 1465 1463 1461 1460 1457 1456 1453 1450 1447 1444 1441 1438 1436 1434 1434 1434 1434 1435 1434 1434 1434 1435 1436 1437 1441 1442 1441
1494 1502 1473 1464 1470 1470 1467 1463 1462 1460 1458 1459 1458 1457 1458 1459 1461 1461 1460 1460 1459 1457 1456 1454 1452 1450 1447 1445 1444 1443 1441 1439 1438 1437 1438 1437 1438 1438 1439 1439 1441 1442 1441 1442
1496 1482 1464 1462 1466 1466 1465 1451 1451 1452 1451 1455 1458 1456 1451 1451 1453 1456 1457 1457 1457 1456 1455 1454 1453 1451 1449 1448 1447 1446 1445 1444 1442 1441 1441 1441 1442 1442 1442 1442 1441 1442 1443 1443
1509 1491 1460 1448 1459 1462 1464 1450 1443 1447 1447 1450 1455 1452 1445 1446 1448 1451 1452 1453 1453 1454 1454 1454 1453 1452 1450 1450 1449 1447 1446 1444 1443 1443 1443 1443 1443 1442 1442 1443 1443 1444 1443 1441
1490 1480 1455 1450 1457 1462 1454 1438 1439 1441 1443 1446 1448 1444 1444 1445 1447 1448 1449 1450 1451 1451 1451 1452 1452 1451 1451 1450 1449 1448 1447 1446 1446 1445 1445 1445 1444 1444 1443 1442 1441 1440 1438 1438
1489 1486 1460 1449 1459 1454 1434 1435 1436 1437 1438 1439 1439 1441 1441 1441 1442 1444 1446 1447 1449 1449 1449 1449 1450 1450 1450 1450 1449 1448 1448 1447 1447 1447 1446 1445 1444 1443 1442 1441 1439 1438 1438 1438
1458 1439 1438 1438 1432 1431 1431 1431 1432 1434 1434 1434 1435 1435 1436 1438 1439 1439 1439 1441 1443 1445 1446 1446 1447 1447 1447 1447 1447 1447 1447 1446 1446 1445 1445 1444 1443 1442 1441 1440 1439 1439 1437 1436
1451 1426 1431 1433 1429 1428 1427 1426 1428 1429 1430 1430 1429 1430 1431 1432 1433 1434 1435 1435 1436 1437 1439 1441 1443 1444 1445 1445 1445 1445 1445 1445 1444 1444 1443 1443 1442 1441 1440 1440 1438 1437 1435 1433
1441 1425 1429 1423 1421 1421 1421 1421 1421 1421 1422 1423 1424 1424 1425 1425 1427 1428 1429 1431 1432 1432 1433 1435 1436 1438 1440 1441 1442 1443 1443 1443 1443 1442 1442 1441 1440 1439 1438 1437 1435 1434 1432 1429
1419 1413 1417 1414 1415 1416 1416 1416 1415 1415 1414 1415 1416 1416 1419 1420 1421 1422 1423 1424 1425 1427 1428 1429 1430 1432 1434 1436 1437 1439 1440 1440 1440 1440 1439 1438 1436 1436 1434 1433 1431 1429 1427 1424
1411 1410 1413 1411 1409 1409 1410 1409 1409 1409 1409 1409 1409 1409 1410 1412 1414 1416 1418 1419 1419 1421 1422 1423 1424 1427 1429 1431 1433 1434 1435 1436 1435 1435 1434 1433 1431 1430 1429 1428 1426 1425 1422 1420
1401 1402 1403 1401 1400 1400 1400 1402 1402 1401 1400 1401 1403 1403 1403 1403 1405 1408 1410 1413 1415 1416 1417 1418 1419 1422 1424 1426 1427 1429 1430 1431 1431 1430 1429 1428 1427 1426 1425 1423 1422 1420 1418 1416
1389 1390 1388 1390 1392 1391 1392 1392 1393 1394 1394 1393 1394 1395 1396 1396 1396 1398 1403 1407 1409 1410 1411 1413 1415 1417 1419 1421 1423 1424 1424 1425 1425 1425 1424 1423 1423 1422 1421 1419 1418 1416 1414 1411
1378 1380 1380 1379 1379 1379 1380 1379 1380 1381 1384 1386 1387 1389 1391 1391 1391 1393 1395 1397 1400 1403 1406 1408 1409 1411 1413 1415 1417 1418 1419 1419 1419 1419 1419 1419 1418 1417 1416 1414 1413 1411 1408 1406
1370 1370 1370 1368 1368 1369 1370 1370 1370 1371 1373 1373 1374 1377 1379 1383 1385 1386 1389 1392 1394 1397 1401 1403 1405 1405 1407 1410 1412 1413 1414 1415 1414 1414 1414 1414 1413 1412 1411 1409 1407 1405 1403 1400
1356 1356 1360 1360 1360 1362 1361 1363 1362 1362 1363 1364 1365 1364 1366 1369 1372 1376 1380 1384 1389 1392 1393 1397 1399 1401 1403 1405 1407 1408 1409 1410 1409 1409 1409 1408 1408 1407 1405 1403 1401 1399 1396 1393
1344 1346 1350 1350 1351 1353 1354 1355 1357 1356 1356 1358 1358 1356 1355 1358 1363 1369 1374 1378 1381 1385 1389 1391 1394 1397 1398 1400 1402 1404 1405 1406 1405 1405 1404 1404 1403 1401 1400 1398 1395 1393 1389 1386
1340 1339 1342 1345 1346 1348 1348 1348 1349 1351 1350 1350 1350 1351 1349 1350 1355 1360 1366 1370 1373 1378 1383 1387 1389 1390 1393 1395 1397 1399 1400 1401 1401 1400 1400 1399 1397 1395 1393 1391 1388 1385 1382 1379
1334 1335 1337 1340 1342 1343 1344 1345 1344 1344 1344 1342 1343 1344 1348 1348 1350 1354 1359 1364 1369 1374 1378 1381 1385 1387 1389 1391 1392 1394 1395 1396 1396 1396 1395 1393 1391 1389 1386 1384 1382 1379 1375 1372
1330 1331 1334 1336 1338 1341 1341 1341 1340 1339 1339 1338 1338 1339 1342 1343 1346 1351 1356 1360 1365 1369 1373 1375 1379 1383 1385 1388 1389 1389 1391 1392 1392 1391 1389 1387 1385 1383 1381 1378 1375 1372 1369 1366
1328 1330 1332 1333 1335 1337 1338 1338 1337 1336 1335 1336 1335 1335 1338 1340 1342 1346 1350 1356 1360 1364 1368 1372 1375 1377 1380 1383 1384 1386 1386 1387 1386 1385 1383 1382 1380 1377 1374 1372 1369 1366 1363 1359
1325 1328 1330 1332 1333 1334 1334 1334 1333 1332 1331 1331 1331 1333 1335 1338 1340 1344 1350 1354 1356 1359 1363 1368 1371 1374 1376 1378 1380 1381 1382 1381 1380 1379 1378 1376 1374 1371 1368 1365 1361 1358 1355 1351
1320 1324 1326 1328 1330 1331 1331 1331 1329 1328 1329 1329 1329 1330 1332 1336 1340 1343 1347 1350 1352 1358 1361 1364 1367 1370 1372 1374 1375 1376 1377 1376 1375 1374 1372 1370 1368 1365 1362 1358 1355 1351 1346 1342
1319 1319 1322 1326 1326 1325 1326 1326 1325 1323 1324 1325 1326 1328 1332 1336 1339 1342 1345 1349 1353 1354 1358 1362 1365 1367 1369 1370 1371 1371 1371 1371 1369 1368 1367 1365 1362 1359 1356 1352 1348 1344 1339 1335
1316 1316 1320 1321 1321 1320 1322 1320 1319 1320 1322 1323 1324 1325 1330 1335 1338 1340 1342 1346 1350 1351 1355 1359 1362 1365 1365 1367 1367 1368 1367 1366 1365 1364 1362 1360 1358 1355 1351 1348 1343 1338 1333 1328